GW2328 Weather Reports


Display with metric or nautical units.
time (UTC)temp
F
wind
direction
speed
MPH
gust
MPH
rain 1hr
in
rain 24hr
in
rain mn
in
humidity
%
barometer
mb
20260906174026 87 145 1.0 2.0 0.00 0.00 0.00 65 1019.3
20260906173521 87 143 0.0 1.0 0.00 0.00 0.00 67 1019.4
20260906173016 85 127 1.0 3.0 0.00 0.00 0.00 69 1019.4
20260906172511 84 143 0.0 1.0 0.00 0.00 0.00 69 1019.7
20260906172006 84 141 0.0 2.0 0.00 0.00 0.00 69 1019.3
20260906171501 84 131 1.0 2.0 0.00 0.00 0.00 69 1019.4
20260906170956 83 253 3.0 3.0 0.00 0.00 0.00 71 1019.4
20260906170452 82 157 2.0 2.0 0.00 0.00 0.00 71 1019.5
20260906165949 83 151 0.0 2.0 0.00 0.00 0.00 71 1019.5
20260906165448 82 146 1.0 2.0 0.00 0.00 0.00 71 1019.6
20260906164943 83 139 1.0 2.0 0.00 0.00 0.00 70 1019.5
20260906164442 84 147 1.0 2.0 0.00 0.00 0.00 70 1019.7
20260906163939 84 146 0.0 2.0 0.00 0.00 0.00 71 1019.7
20260906163434 84 131 1.0 2.0 0.00 0.00 0.00 71 1019.5
20260906162932 84 157 1.0 1.0 0.00 0.00 0.00 71 1019.8
20260906162431 84 145 0.0 1.0 0.00 0.00 0.00 72 1019.8
20260906161926 84 157 0.0 2.0 0.00 0.00 0.00 72 1020.2
20260906161426 84 180 1.0 2.0 0.00 0.00 0.00 73 1020.2
20260906160925 84 155 1.0 3.0 0.00 0.00 0.00 74 1020.1
20260906160418 84 178 1.0 3.0 0.00 0.00 0.00 76 1020.1
20260906155917 84 156 1.0 2.0 0.00 0.00 0.00 77 1020.2
20260906155410 82 138 0.0 0.0 0.00 0.00 0.00 78 1020.1
20260906154907 82 133 1.0 2.0 0.00 0.00 0.00 79 1020.3
20260906154401 82 134 1.0 2.0 0.00 0.00 0.00 80 1020.3
20260906153900 81 134 1.0 2.0 0.00 0.00 0.00 82 1020.3
20260906153359 80 146 2.0 2.0 0.00 0.00 0.00 84 1020.1
20260906152855 80 135 0.0 1.0 0.00 0.00 0.00 86 1020.3
20260906152355 79 129 1.0 1.0 0.00 0.00 0.00 88 1020.1
20260906151854 78 140 1.0 1.0 0.00 0.00 0.00 89 1020.3
20260906151350 77 141 1.0 1.0 0.00 0.00 0.00 90 1020.2
20260906150845 76 137 0.0 2.0 0.00 0.00 0.00 90 1020.1
20260906150341 75 150 0.0 1.0 0.00 0.00 0.00 91 1020.3
20260906145839 75 147 0.0 0.0 0.00 0.00 0.00 91 1020.4
20260906145333 74 147 0.0 1.0 0.00 0.00 0.00 91 1020.2
20260906144828 74 146 0.0 1.0 0.00 0.00 0.00 92 1020.2
20260906144323 74 131 1.0 2.0 0.00 0.00 0.00 92 1020.4
20260906143822 74 139 0.0 0.0 0.00 0.00 0.00 92 1020.0
20260906143319 74 146 0.0 1.0 0.00 0.00 0.00 92 1020.0
20260906142815 74 141 0.0 1.0 0.00 0.00 0.00 92 1020.1
20260906142309 74 150 1.0 1.0 0.00 0.00 0.00 93 1020.2
20260906141809 74 188 1.0 1.0 0.00 0.00 0.00 93 1019.9
20260906141303 74 147 0.0 0.0 0.00 0.00 0.00 93 1020.0
20260906140802 74 150 0.0 1.0 0.00 0.00 0.00 93 1019.9
20260906140257 73 147 0.0 0.0 0.00 0.00 0.00 93 1019.8
20260906135755 74 149 0.0 0.0 0.00 0.00 0.00 93 1019.9
20260906135250 74 151 0.0 2.0 0.00 0.00 0.00 93 1019.8
20260906134746 74 147 0.0 1.0 0.00 0.00 0.00 93 1019.8
20260906134241 73 149 0.0 1.0 0.00 0.00 0.00 93 1019.8
20260906133736 74 131 1.0 1.0 0.00 0.00 0.00 93 1019.7
20260906133231 74 150 1.0 1.0 0.00 0.00 0.00 93 1019.6
20260906132727 74 165 2.0 2.0 0.00 0.00 0.00 93 1019.7
20260906132222 74 165 1.0 2.0 0.00 0.00 0.00 93 1019.4
20260906131718 74 148 1.0 2.0 0.00 0.00 0.00 93 1019.5
20260906131213 74 144 1.0 2.0 0.00 0.00 0.00 93 1019.4
20260906130708 75 153 1.0 1.0 0.00 0.00 0.00 93 1019.3
20260906130203 75 160 2.0 2.0 0.00 0.00 0.00 93 1019.6
20260906125701 75 150 1.0 2.0 0.00 0.00 0.00 94 1019.4
20260906125200 75 144 0.0 1.0 0.00 0.00 0.00 94 1019.2
20260906124655 75 145 0.0 0.0 0.00 0.00 0.00 94 1019.3
20260906124150 75 147 0.0 2.0 0.00 0.00 0.00 94 1019.2
20260906123649 75 149 0.0 0.0 0.00 0.00 0.00 94 1019.1
20260906123145 75 147 0.0 1.0 0.00 0.00 0.00 94 1019.1
20260906122644 75 161 0.0 1.0 0.00 0.00 0.00 94 1019.1
20260906122140 75 154 1.0 1.0 0.00 0.00 0.00 94 1019.0
20260906121636 75 189 2.0 2.0 0.00 0.00 0.00 94 1019.1
20260906121132 75 150 0.0 0.0 0.00 0.00 0.00 95 1018.8
20260906120627 75 149 0.0 1.0 0.00 0.00 0.00 95 1018.6
20260906120124 74 145 0.0 1.0 0.00 0.00 0.00 95 1018.6
20260906115619 74 145 0.0 1.0 0.00 0.00 0.00 95 1018.3
20260906115114 74 149 0.0 1.0 0.00 0.00 0.00 95 1018.5
20260906114608 74 140 0.0 1.0 0.00 0.00 0.00 95 1018.5
20260906114103 74 154 1.0 1.0 0.00 0.00 0.00 95 1018.4
20260906113603 74 168 1.0 2.0 0.00 0.00 0.00 96 1018.4
20260906113057 74 142 0.0 1.0 0.00 0.00 0.00 96 1018.4
20260906112552 74 153 1.0 1.0 0.00 0.00 0.00 96 1018.4
20260906112048 74 143 0.0 1.0 0.00 0.00 0.00 96 1018.4
20260906111548 74 145 0.0 1.0 0.00 0.00 0.00 96 1018.2
20260906111043 74 147 0.0 0.0 0.00 0.00 0.00 96 1018.1
20260906110543 74 166 1.0 1.0 0.00 0.00 0.00 96 1018.3
20260906110042 74 149 0.0 1.0 0.00 0.00 0.00 96 1018.0
20260906105537 74 143 0.0 0.0 0.00 0.00 0.00 96 1018.0
20260906105033 74 138 0.0 2.0 0.00 0.00 0.00 96 1018.1
20260906104531 74 155 0.0 1.0 0.00 0.00 0.00 96 1018.1
20260906104026 74 147 0.0 0.0 0.00 0.00 0.00 96 1018.0
20260906103525 74 148 0.0 0.0 0.00 0.00 0.00 96 1017.8
20260906103020 74 142 0.0 1.0 0.00 0.00 0.00 96 1018.0
20260906102520 74 150 0.0 1.0 0.00 0.00 0.00 96 1017.8
20260906102015 74 143 0.0 1.0 0.00 0.00 0.00 96 1018.1
20260906101509 74 149 0.0 1.0 0.00 0.00 0.00 96 1017.6
20260906101004 74 149 0.0 1.0 0.00 0.00 0.00 96 1017.8
20260906100500 74 145 0.0 1.0 0.00 0.00 0.00 96 1017.7
20260906095954 74 129 0.0 1.0 0.00 0.00 0.00 95 1017.6
20260906095449 74 144 0.0 1.0 0.00 0.00 0.00 95 1017.6
20260906094944 73 148 0.0 0.0 0.00 0.00 0.00 95 1017.5
20260906094438 73 148 0.0 0.0 0.00 0.00 0.00 95 1017.3
20260906093934 73 146 0.0 0.0 0.00 0.00 0.00 95 1017.5
20260906093430 73 144 0.0 0.0 0.00 0.00 0.00 95 1017.2
20260906092930 73 146 0.0 0.0 0.00 0.00 0.00 95 1017.3
20260906092430 73 146 0.0 0.0 0.00 0.00 0.00 95 1017.4
20260906091925 73 138 0.0 0.0 0.00 0.00 0.00 95 1017.0
20260906091421 73 144 0.0 0.0 0.00 0.00 0.00 95 1017.2
20260906090917 73 142 0.0 0.0 0.00 0.00 0.00 95 1017.3
20260906090412 73 142 0.0 0.0 0.00 0.00 0.00 95 1017.2
20260906085906 74 136 0.0 0.0 0.00 0.00 0.00 94 1017.0
20260906085400 74 143 0.0 0.0 0.00 0.00 0.00 94 1016.9
20260906084900 74 141 0.0 0.0 0.00 0.00 0.00 94 1017.3
20260906084354 74 139 0.0 0.0 0.00 0.00 0.00 94 1017.0
20260906083848 74 141 0.0 0.0 0.00 0.00 0.00 94 1016.9
20260906083344 74 139 0.0 0.0 0.00 0.00 0.00 94 1016.9
20260906082843 74 140 0.0 0.0 0.00 0.00 0.00 94 1017.2
20260906082339 74 140 0.0 0.0 0.00 0.00 0.00 94 1017.0
20260906081835 74 140 0.0 0.0 0.00 0.00 0.00 94 1017.3
20260906081330 74 140 0.0 0.0 0.00 0.00 0.00 94 1017.0
20260906080826 74 139 0.0 0.0 0.00 0.00 0.00 94 1017.2
20260906080322 74 147 0.0 0.0 0.00 0.00 0.00 93 1017.0
20260906075821 75 147 0.0 0.0 0.00 0.00 0.00 93 1017.0
20260906075316 75 145 0.0 0.0 0.00 0.00 0.00 93 1017.2
20260906074811 75 147 0.0 0.0 0.00 0.00 0.00 93 1016.8
20260906074311 75 151 0.0 0.0 0.00 0.00 0.00 93 1016.8
20260906073810 75 146 0.0 0.0 0.00 0.00 0.00 93 1016.8
20260906073305 75 148 0.0 0.0 0.00 0.00 0.00 93 1016.8
20260906072802 75 140 0.0 0.0 0.00 0.00 0.00 93 1016.9
20260906072257 75 144 0.0 1.0 0.00 0.00 0.00 93 1017.0
20260906071752 75 142 0.0 0.0 0.00 0.00 0.00 93 1016.8
20260906071253 75 149 0.0 1.0 0.00 0.00 0.00 93 1017.0
20260906070749 75 146 0.0 0.0 0.00 0.00 0.00 93 1016.8
20260906070244 75 141 0.0 0.0 0.00 0.00 0.00 93 1016.9
20260906065744 75 143 0.0 0.0 0.00 0.00 0.00 94 1017.2
20260906065239 75 142 0.0 0.0 0.00 0.00 0.00 94 1017.0
20260906064735 76 149 1.0 1.0 0.00 0.00 0.00 94 1017.0
20260906064231 76 147 0.0 0.0 0.00 0.00 0.00 94 1017.0
20260906063725 76 148 0.0 0.0 0.00 0.00 0.00 94 1017.0
20260906063221 76 149 0.0 0.0 0.00 0.00 0.00 94 1017.3
20260906062716 76 137 0.0 0.0 0.00 0.00 0.00 94 1017.3
20260906062215 76 143 0.0 0.0 0.00 0.00 0.00 94 1017.0
20260906061712 76 140 0.0 0.0 0.00 0.00 0.00 94 1017.3
20260906061207 76 129 0.0 0.0 0.00 0.00 0.00 94 1017.2
20260906060703 76 142 0.0 0.0 0.00 0.00 0.00 94 1017.4
20260906060200 76 139 0.0 0.0 0.00 0.00 0.00 93 1017.3
20260906055655 76 141 0.0 0.0 0.00 0.00 0.00 93 1017.2
20260906055150 76 141 0.0 0.0 0.00 0.00 0.00 93 1017.0
20260906054646 76 141 0.0 0.0 0.00 0.00 0.00 93 1017.2
20260906054140 77 141 0.0 0.0 0.00 0.00 0.00 93 1017.4
20260906053637 77 141 0.0 0.0 0.00 0.00 0.00 93 1017.3
20260906053137 77 140 0.0 0.0 0.00 0.00 0.00 93 1017.3
20260906052633 77 140 0.0 0.0 0.00 0.00 0.00 92 1017.4
20260906052130 77 147 0.0 0.0 0.00 0.00 0.00 92 1017.3
20260906051626 77 147 0.0 0.0 0.00 0.00 0.00 92 1017.3
20260906051126 77 148 0.0 0.0 0.00 0.00 0.00 92 1017.3
20260906050621 77 144 0.0 0.0 0.00 0.00 0.00 92 1017.2
20260906050116 77 143 0.0 0.0 0.00 0.00 0.00 92 1017.2
20260906045614 77 143 0.0 0.0 0.00 0.00 0.00 92 1017.3
20260906045110 77 143 0.0 0.0 0.00 0.00 0.00 91 1017.0
20260906044606 78 143 0.0 0.0 0.00 0.00 0.00 92 1016.7
20260906044101 77 140 0.0 0.0 0.00 0.00 0.00 91 1016.7
20260906043557 77 139 0.0 0.0 0.00 0.00 0.00 91 1016.7
20260906043053 77 137 0.0 0.0 0.00 0.00 0.00 91 1016.5
20260906042551 78 146 0.0 0.0 0.00 0.00 0.00 91 1016.5
20260906042046 78 146 0.0 0.0 0.00 0.00 0.00 91 1016.4
20260906041543 78 146 0.0 0.0 0.00 0.00 0.00 91 1016.4
20260906041037 78 146 0.0 0.0 0.00 0.00 0.00 91 1016.6
20260906040532 78 146 0.0 0.0 0.00 0.00 0.00 91 1016.4
20260906040028 78 146 0.0 0.0 0.00 0.00 0.00 91 1016.4
20260906035523 78 147 0.0 0.0 0.00 0.00 0.00 90 1016.4
20260906035019 78 147 0.0 0.0 0.00 0.00 0.00 90 1016.4
20260906034518 78 147 0.0 0.0 0.00 0.00 0.00 90 1016.4
20260906034014 78 146 0.0 1.0 0.00 0.00 0.00 90 1016.3
20260906033508 78 154 0.0 1.0 0.00 0.00 0.00 90 1016.3
20260906033004 79 146 0.0 0.0 0.00 0.00 0.00 89 1016.3
20260906032500 79 143 0.0 0.0 0.00 0.00 0.00 89 1016.5
20260906031954 79 140 1.0 2.0 0.00 0.00 0.00 89 1016.3
20260906031450 79 137 0.0 0.0 0.00 0.00 0.00 89 1016.1
20260906030945 79 144 0.0 0.0 0.00 0.00 0.00 89 1016.0
20260906030440 79 146 0.0 0.0 0.00 0.00 0.00 88 1016.1
20260906025934 79 148 0.0 0.0 0.00 0.00 0.00 88 1016.1
20260906025428 79 144 0.0 1.0 0.00 0.00 0.00 88 1016.1
20260906024927 80 144 0.0 0.0 0.00 0.00 0.00 87 1016.2
20260906024426 80 144 0.0 0.0 0.00 0.00 0.00 87 1016.2
20260906023922 80 143 0.0 0.0 0.00 0.00 0.00 87 1016.2
20260906023418 80 144 0.0 0.0 0.00 0.00 0.00 86 1016.3
20260906022918 80 145 0.0 0.0 0.00 0.00 0.00 86 1015.9
20260906022413 80 144 0.0 0.0 0.00 0.00 0.00 86 1016.2
20260906021909 80 144 0.0 0.0 0.00 0.00 0.00 85 1015.8
20260906021408 81 144 0.0 0.0 0.00 0.00 0.00 85 1015.8
20260906020903 81 143 0.0 0.0 0.00 0.00 0.00 85 1015.9
20260906020357 81 143 0.0 0.0 0.00 0.00 0.00 84 1015.8
20260906015852 81 143 0.0 0.0 0.00 0.00 0.00 84 1015.9
20260906015351 82 144 0.0 0.0 0.00 0.00 0.00 84 1015.8
20260906014850 82 147 0.0 0.0 0.00 0.00 0.00 83 1015.5
20260906014345 82 139 0.0 0.0 0.00 0.00 0.00 83 1015.8
20260906013841 82 139 0.0 0.0 0.00 0.00 0.00 82 1015.6
20260906013336 82 139 0.0 0.0 0.00 0.00 0.00 82 1015.6
20260906012832 82 139 0.0 0.0 0.00 0.00 0.00 81 1015.8
20260906012327 82 138 0.0 0.0 0.00 0.00 0.00 81 1015.4
20260906011826 83 138 0.0 0.0 0.00 0.00 0.00 80 1015.6
20260906011322 83 143 0.0 0.0 0.00 0.00 0.00 79 1015.4
20260906010818 83 143 0.0 0.0 0.00 0.00 0.00 78 1015.2
20260906010314 84 146 0.0 1.0 0.00 0.00 0.00 78 1015.1
20260906005809 84 138 0.0 1.0 0.00 0.00 0.00 77 1015.3
20260906005307 84 151 0.0 0.0 0.00 0.00 0.00 76 1015.1
20260906004806 85 142 0.0 0.0 0.00 0.00 0.00 75 1015.2
20260906004301 85 142 0.0 0.0 0.00 0.00 0.00 74 1015.0
20260906003756 85 142 0.0 0.0 0.00 0.00 0.00 74 1015.1
20260906003252 86 142 0.0 0.0 0.00 0.00 0.00 73 1015.0
20260906002747 86 142 0.0 0.0 0.00 0.00 0.00 72 1014.9
20260906002247 86 142 0.0 0.0 0.00 0.00 0.00 71 1015.1
20260906001742 87 142 0.0 0.0 0.00 0.00 0.00 70 1014.9
20260906001237 87 142 0.0 0.0 0.00 0.00 0.00 69 1015.2
20260906000733 88 140 0.0 0.0 0.00 0.00 0.00 67 1015.3
20260906000234 88 140 0.0 0.0 0.00 0.00 0.00 66 1015.3
20260905235732 88 140 0.0 0.0 0.00 0.00 0.00 65 1015.6
20260905235227 88 140 0.0 0.0 0.00 0.00 0.00 64 1015.3
20260905234723 89 140 0.0 0.0 0.00 0.00 0.00 64 1015.6
20260905234218 89 140 0.0 0.0 0.00 0.00 0.00 64 1015.4
20260905233713 89 140 0.0 0.0 0.00 0.00 0.00 63 1015.4
20260905233212 90 140 0.0 0.0 0.00 0.00 0.00 62 1015.4
20260905232707 90 140 0.0 0.0 0.00 0.00 0.00 62 1015.5
20260905232203 90 140 0.0 0.0 0.00 0.00 0.00 61 1015.6
20260905231659 91 139 0.0 0.0 0.00 0.00 0.00 60 1015.6
20260905231154 91 140 0.0 0.0 0.00 0.00 0.00 59 1015.5
20260905230650 91 139 0.0 0.0 0.00 0.00 0.00 59 1015.4
20260905230148 92 140 0.0 0.0 0.00 0.00 0.00 58 1015.3
20260905225647 92 134 0.0 0.0 0.00 0.00 0.00 57 1015.1
20260905225142 92 136 0.0 1.0 0.00 0.00 0.00 57 1015.1
20260905224641 93 136 0.0 0.0 0.00 0.00 0.00 56 1015.0
20260905224136 93 123 0.0 1.0 0.00 0.00 0.00 55 1015.0
20260905223633 94 138 0.0 0.0 0.00 0.00 0.00 55 1015.2
20260905223130 94 138 0.0 0.0 0.00 0.00 0.00 53 1015.0
20260905222625 95 123 0.0 1.0 0.00 0.00 0.00 53 1014.8
20260905222120 96 142 0.0 2.0 0.00 0.00 0.00 52 1015.1
20260905221615 96 168 1.0 2.0 0.00 0.00 0.00 51 1015.0
20260905221112 96 152 1.0 1.0 0.00 0.00 0.00 51 1014.8
20260905220607 96 148 1.0 2.0 0.00 0.00 0.00 51 1014.9
20260905220103 96 136 1.0 2.0 0.00 0.00 0.00 51 1014.9
20260905215602 97 128 2.0 2.0 0.00 0.00 0.00 51 1015.0
20260905215058 97 206 1.0 2.0 0.00 0.00 0.00 51 1015.1
20260905214554 97 123 2.0 2.0 0.00 0.00 0.00 51 1015.1
20260905214049 96 168 2.0 2.0 0.00 0.00 0.00 51 1015.3
20260905213544 96 142 1.0 3.0 0.00 0.00 0.00 50 1015.1
20260905213039 97 162 1.0 3.0 0.00 0.00 0.00 49 1015.0
20260905212534 97 117 1.0 2.0 0.00 0.00 0.00 49 1015.2
20260905212034 97 115 3.0 3.0 0.00 0.00 0.00 49 1015.0
20260905211529 97 43 2.0 5.0 0.00 0.00 0.00 49 1015.2
20260905211025 98 3 3.0 6.0 0.00 0.00 0.00 49 1015.4
20260905210520 98 182 3.0 3.0 0.00 0.00 0.00 49 1015.3
20260905210020 98 132 1.0 1.0 0.00 0.00 0.00 49 1015.4
20260905205520 98 76 2.0 2.0 0.00 0.00 0.00 49 1015.4
20260905205019 98 134 2.0 2.0 0.00 0.00 0.00 49 1015.4
20260905204514 98 139 2.0 2.0 0.00 0.00 0.00 49 1015.2
20260905204009 97 118 1.0 2.0 0.00 0.00 0.00 48 1015.6
20260905203504 98 122 2.0 3.0 0.00 0.00 0.00 48 1015.5
20260905202959 98 2 3.0 3.0 0.00 0.00 0.00 48 1015.7
20260905202454 98 121 2.0 3.0 0.00 0.00 0.00 47 1015.6
20260905201949 99 260 2.0 3.0 0.00 0.00 0.00 46 1015.7
20260905201445 101 160 2.0 2.0 0.00 0.00 0.00 45 1015.8
20260905200944 101 106 1.0 2.0 0.00 0.00 0.00 45 1015.8
20260905200440 100 153 1.0 2.0 0.00 0.00 0.00 46 1016.0
20260905195939 100 161 1.0 2.0 0.00 0.00 0.00 46 1015.8
20260905195434 99 157 1.0 2.0 0.00 0.00 0.00 47 1015.9
20260905194930 100 140 1.0 1.0 0.00 0.00 0.00 47 1016.0
20260905194428 100 159 0.0 1.0 0.00 0.00 0.00 47 1016.2
20260905193923 100 141 0.0 2.0 0.00 0.00 0.00 47 1016.1
20260905193418 100 167 1.0 3.0 0.00 0.00 0.00 46 1016.1
20260905192913 100 155 0.0 1.0 0.00 0.00 0.00 47 1016.5
20260905192408 100 133 0.0 1.0 0.00 0.00 0.00 47 1016.4
20260905191903 100 117 1.0 2.0 0.00 0.00 0.00 47 1016.5
20260905191402 99 155 0.0 2.0 0.00 0.00 0.00 47 1016.8
20260905190901 98 153 1.0 2.0 0.00 0.00 0.00 49 1016.7
20260905190354 98 113 1.0 2.0 0.00 0.00 0.00 48 1016.9
20260905185853 99 163 1.0 2.0 0.00 0.00 0.00 48 1016.8
20260905185349 99 133 0.0 2.0 0.00 0.00 0.00 48 1017.0
20260905184848 98 141 1.0 2.0 0.00 0.00 0.00 49 1017.0
20260905184347 98 155 0.0 1.0 0.00 0.00 0.00 48 1017.0
20260905183845 98 154 0.0 2.0 0.00 0.00 0.00 48 1017.3
20260905183341 97 128 0.0 1.0 0.00 0.00 0.00 49 1017.4
20260905182836 98 163 0.0 3.0 0.00 0.00 0.00 47 1017.3
20260905182335 98 153 0.0 0.0 0.00 0.00 0.00 48 1017.4
20260905181831 98 159 0.0 2.0 0.00 0.00 0.00 47 1017.4
20260905181330 98 156 1.0 2.0 0.00 0.00 0.00 47 1017.6
20260905180830 97 155 0.0 1.0 0.00 0.00 0.00 49 1017.3
20260905180325 97 137 0.0 2.0 0.00 0.00 0.00 48 1017.7
20260905175820 97 203 1.0 2.0 0.00 0.00 0.00 48 1017.8
20260905175314 98 179 1.0 1.0 0.00 0.00 0.00 47 1017.6
20260905174809 98 255 0.0 2.0 0.00 0.00 0.00 49 1017.9